| time (UTC) | temp F | wind direction | speed MPH | gust MPH | rain 1hr in | rain 24hr in | rain mn in | humidity % | barometer mb |
| 20260507051852 | 48 | 229 | 0.0 | 0.0 | 0.00 | 0.00 | 0.00 | 99 | 1010.9 |
| 20260507051349 | 48 | 186 | 0.0 | 0.0 | 0.00 | 0.00 | 0.00 | 99 | 1011.1 |
| 20260507050846 | 48 | 231 | 0.0 | 0.0 | 0.00 | 0.00 | 0.00 | 99 | 1011.3 |
| 20260507050342 | 48 | 242 | 0.0 | 0.0 | 0.00 | 0.00 | 0.00 | 99 | 1011.5 |
| 20260507045839 | 48 | 233 | 1.0 | 2.0 | 0.00 | 0.00 | 0.00 | 99 | 1011.3 |
| 20260507045336 | 48 | 232 | 0.0 | 0.0 | 0.00 | 0.00 | 0.00 | 99 | 1011.2 |
| 20260507044833 | 48 | 234 | 0.0 | 0.0 | 0.00 | 0.00 | 0.00 | 99 | 1011.5 |
| 20260507044329 | 48 | 219 | 0.0 | 0.0 | 0.00 | 0.00 | 0.00 | 99 | 1011.3 |
| 20260507043825 | 48 | 152 | 0.0 | 0.0 | 0.00 | 0.00 | 0.00 | 99 | 1011.1 |
| 20260507043322 | 48 | 196 | 0.0 | 0.0 | 0.00 | 0.00 | 0.00 | 99 | 1011.1 |
| 20260507042818 | 48 | 208 | 0.0 | 0.0 | 0.00 | 0.00 | 0.00 | 99 | 1011.3 |
| 20260507042314 | 48 | 252 | 0.0 | 0.0 | 0.00 | 0.00 | 0.00 | 99 | 1011.5 |
| 20260507041811 | 48 | 233 | 0.0 | 0.0 | 0.00 | 0.00 | 0.00 | 99 | 1011.4 |
| 20260507041308 | 48 | 242 | 0.0 | 0.0 | 0.00 | 0.00 | 0.00 | 99 | 1011.2 |
| 20260507040805 | 48 | 239 | 0.0 | 0.0 | 0.00 | 0.00 | 0.00 | 99 | 1011.3 |
| 20260507040301 | 48 | 192 | 0.0 | 0.0 | 0.00 | 0.00 | 0.00 | 99 | 1011.4 |
| 20260507035757 | 49 | 238 | 0.0 | 0.0 | 0.00 | 0.32 | 0.32 | 99 | 1011.2 |
| 20260507035252 | 48 | 112 | 1.0 | 1.0 | 0.00 | 0.32 | 0.32 | 99 | 1011.2 |
| 20260507034750 | 48 | 168 | 0.0 | 1.0 | 0.00 | 0.32 | 0.32 | 99 | 1011.0 |
| 20260507034247 | 49 | 353 | 0.0 | 0.0 | 0.00 | 0.32 | 0.32 | 99 | 1011.1 |
| 20260507033745 | 49 | 250 | 0.0 | 0.0 | 0.00 | 0.32 | 0.32 | 99 | 1011.0 |
| 20260507033242 | 49 | 233 | 0.0 | 0.0 | 0.00 | 0.32 | 0.32 | 99 | 1011.0 |
| 20260507032739 | 50 | 230 | 0.0 | 0.0 | 0.00 | 0.32 | 0.32 | 99 | 1010.6 |
| 20260507032235 | 50 | 199 | 0.0 | 0.0 | 0.00 | 0.32 | 0.32 | 99 | 1011.0 |
| 20260507031732 | 50 | 234 | 0.0 | 0.0 | 0.00 | 0.32 | 0.32 | 99 | 1011.0 |
| 20260507031229 | 50 | 240 | 0.0 | 0.0 | 0.00 | 0.32 | 0.32 | 99 | 1011.2 |
| 20260507030726 | 50 | 182 | 0.0 | 0.0 | 0.00 | 0.32 | 0.32 | 99 | 1011.1 |
| 20260507030223 | 50 | 287 | 0.0 | 1.0 | 0.00 | 0.32 | 0.32 | 99 | 1011.6 |
| 20260507025720 | 50 | 197 | 0.0 | 0.0 | 0.00 | 0.32 | 0.32 | 99 | 1011.5 |
| 20260507025217 | 51 | 306 | 3.0 | 6.0 | 0.00 | 0.32 | 0.32 | 99 | 1011.2 |
| 20260507024716 | 51 | 298 | 0.0 | 0.0 | 0.00 | 0.32 | 0.32 | 99 | 1011.3 |
| 20260507024212 | 52 | 256 | 0.0 | 0.0 | 0.00 | 0.32 | 0.32 | 99 | 1011.4 |
| 20260507023708 | 52 | 271 | 1.0 | 2.0 | 0.00 | 0.32 | 0.32 | 99 | 1011.3 |
| 20260507023205 | 52 | 211 | 0.0 | 0.0 | 0.00 | 0.32 | 0.32 | 99 | 1011.4 |
| 20260507022702 | 53 | 339 | 3.0 | 3.0 | 0.00 | 0.32 | 0.32 | 99 | 1011.2 |
| 20260507022158 | 54 | 260 | 1.0 | 2.0 | 0.00 | 0.32 | 0.32 | 99 | 1011.3 |
| 20260507021654 | 55 | 230 | 0.0 | 0.0 | 0.00 | 0.32 | 0.32 | 99 | 1011.2 |
| 20260507021149 | 55 | 256 | 2.0 | 2.0 | 0.00 | 0.32 | 0.32 | 99 | 1010.9 |
| 20260507020649 | 56 | 241 | 1.0 | 1.0 | 0.00 | 0.32 | 0.32 | 99 | 1010.9 |
| 20260507020144 | 56 | 247 | 0.0 | 0.0 | 0.00 | 0.32 | 0.32 | 99 | 1010.5 |
| 20260507015643 | 56 | 276 | 3.0 | 4.0 | 0.00 | 0.32 | 0.32 | 99 | 1010.5 |
| 20260507015140 | 56 | 248 | 4.0 | 4.0 | 0.00 | 0.32 | 0.32 | 99 | 1010.5 |
| 20260507014636 | 57 | 243 | 0.0 | 0.0 | 0.00 | 0.32 | 0.32 | 99 | 1010.7 |
| 20260507014132 | 57 | 244 | 0.0 | 0.0 | 0.00 | 0.32 | 0.32 | 99 | 1010.9 |
| 20260507013629 | 57 | 250 | 1.0 | 1.0 | 0.00 | 0.32 | 0.32 | 99 | 1011.0 |
| 20260507013126 | 57 | 250 | 1.0 | 1.0 | 0.00 | 0.32 | 0.32 | 99 | 1010.5 |
| 20260507012624 | 57 | 241 | 0.0 | 0.0 | 0.00 | 0.32 | 0.32 | 99 | 1010.7 |
| 20260507012119 | 57 | 251 | 1.0 | 2.0 | 0.00 | 0.32 | 0.32 | 99 | 1010.4 |
| 20260507011617 | 58 | 251 | 1.0 | 1.0 | 0.05 | 0.32 | 0.32 | 99 | 1010.7 |
| 20260507011113 | 58 | 260 | 0.0 | 0.0 | 0.05 | 0.32 | 0.32 | 99 | 1010.1 |
| 20260507010608 | 58 | 256 | 1.0 | 1.0 | 0.00 | 0.31 | 0.31 | 99 | 1010.4 |
| 20260507010104 | 58 | 250 | 0.0 | 0.0 | 0.00 | 0.31 | 0.31 | 99 | 1009.8 |
| 20260507005602 | 58 | 241 | 0.0 | 0.0 | 0.00 | 0.31 | 0.31 | 99 | 1009.9 |
| 20260507005058 | 58 | 256 | 0.0 | 0.0 | 0.00 | 0.31 | 0.31 | 99 | 1009.8 |
| 20260507004555 | 58 | 238 | 0.0 | 0.0 | 0.00 | 0.31 | 0.31 | 99 | 1009.6 |
| 20260507004052 | 58 | 254 | 0.0 | 0.0 | 0.00 | 0.31 | 0.31 | 99 | 1009.7 |
| 20260507003548 | 58 | 247 | 0.0 | 0.0 | 0.00 | 0.31 | 0.31 | 99 | 1009.8 |
| 20260507003043 | 58 | 355 | 0.0 | 0.0 | 0.00 | 0.31 | 0.31 | 99 | 1009.8 |
| 20260507002540 | 58 | 244 | 0.0 | 0.0 | 0.00 | 0.31 | 0.31 | 99 | 1009.6 |
| 20260507002036 | 58 | 249 | 0.0 | 0.0 | 0.00 | 0.31 | 0.31 | 99 | 1009.8 |
| 20260507001533 | 58 | 251 | 0.0 | 0.0 | 0.00 | 0.31 | 0.31 | 99 | 1009.4 |
| 20260507001031 | 58 | 240 | 0.0 | 0.0 | 0.00 | 0.31 | 0.31 | 99 | 1009.7 |
| 20260507000527 | 58 | 81 | 0.0 | 0.0 | 0.00 | 0.31 | 0.31 | 99 | 1009.8 |
| 20260507000023 | 58 | 255 | 1.0 | 2.0 | 0.00 | 0.31 | 0.31 | 99 | 1009.8 |
| 20260506235520 | 58 | 246 | 0.0 | 0.0 | 0.00 | 0.31 | 0.31 | 99 | 1009.8 |
| 20260506235015 | 58 | 254 | 0.0 | 0.0 | 0.00 | 0.31 | 0.31 | 99 | 1009.6 |
| 20260506234513 | 58 | 249 | 0.0 | 0.0 | 0.00 | 0.31 | 0.31 | 99 | 1009.6 |
| 20260506234010 | 58 | 247 | 0.0 | 0.0 | 0.00 | 0.31 | 0.31 | 99 | 1009.3 |
| 20260506233507 | 58 | 264 | 0.0 | 0.0 | 0.00 | 0.31 | 0.31 | 99 | 1009.5 |
| 20260506233004 | 58 | 215 | 0.0 | 0.0 | 0.00 | 0.31 | 0.31 | 99 | 1009.4 |
| 20260506232500 | 58 | 238 | 0.0 | 0.0 | 0.00 | 0.31 | 0.31 | 99 | 1009.4 |
| 20260506231955 | 58 | 206 | 0.0 | 1.0 | 0.00 | 0.31 | 0.31 | 99 | 1009.3 |
| 20260506231453 | 58 | 247 | 0.0 | 0.0 | 0.00 | 0.31 | 0.31 | 99 | 1009.5 |
| 20260506230950 | 58 | 251 | 0.0 | 0.0 | 0.00 | 0.31 | 0.31 | 99 | 1009.2 |
| 20260506230446 | 58 | 238 | 2.0 | 3.0 | 0.00 | 0.31 | 0.31 | 99 | 1009.5 |
| 20260506225943 | 58 | 251 | 0.0 | 0.0 | 0.00 | 0.31 | 0.31 | 99 | 1009.4 |
| 20260506225441 | 58 | 246 | 0.0 | 1.0 | 0.00 | 0.31 | 0.31 | 99 | 1009.2 |
| 20260506224937 | 58 | 251 | 0.0 | 1.0 | 0.00 | 0.31 | 0.31 | 99 | 1009.3 |
| 20260506224434 | 58 | 257 | 0.0 | 0.0 | 0.00 | 0.31 | 0.31 | 99 | 1009.3 |
| 20260506223931 | 58 | 220 | 0.0 | 0.0 | 0.00 | 0.31 | 0.31 | 99 | 1009.0 |
| 20260506223426 | 58 | 242 | 0.0 | 0.0 | 0.00 | 0.31 | 0.31 | 99 | 1009.1 |
| 20260506222924 | 58 | 252 | 0.0 | 0.0 | 0.00 | 0.31 | 0.31 | 99 | 1009.1 |
| 20260506222420 | 58 | 258 | 0.0 | 0.0 | 0.00 | 0.31 | 0.31 | 99 | 1009.0 |
| 20260506221917 | 58 | 266 | 0.0 | 0.0 | 0.00 | 0.31 | 0.31 | 99 | 1008.9 |
| 20260506221414 | 58 | 214 | 0.0 | 0.0 | 0.00 | 0.31 | 0.31 | 99 | 1009.0 |
| 20260506220912 | 58 | 223 | 0.0 | 1.0 | 0.00 | 0.31 | 0.31 | 99 | 1008.9 |
| 20260506220407 | 58 | 253 | 0.0 | 1.0 | 0.00 | 0.31 | 0.31 | 99 | 1009.1 |
| 20260506215904 | 58 | 256 | 0.0 | 0.0 | 0.00 | 0.31 | 0.31 | 99 | 1008.7 |
| 20260506215400 | 58 | 261 | 0.0 | 0.0 | 0.00 | 0.31 | 0.31 | 99 | 1008.9 |
| 20260506214856 | 58 | 244 | 0.0 | 0.0 | 0.00 | 0.31 | 0.31 | 99 | 1008.8 |
| 20260506214353 | 58 | 217 | 0.0 | 0.0 | 0.00 | 0.31 | 0.31 | 99 | 1008.5 |
| 20260506213851 | 58 | 245 | 0.0 | 0.0 | 0.00 | 0.31 | 0.31 | 99 | 1008.7 |
| 20260506213348 | 58 | 248 | 0.0 | 0.0 | 0.00 | 0.31 | 0.31 | 99 | 1008.7 |
| 20260506212846 | 58 | 257 | 1.0 | 1.0 | 0.00 | 0.31 | 0.31 | 99 | 1008.6 |
| 20260506212341 | 58 | 258 | 1.0 | 1.0 | 0.00 | 0.31 | 0.31 | 99 | 1008.9 |
| 20260506211836 | 58 | 233 | 0.0 | 0.0 | 0.00 | 0.31 | 0.31 | 99 | 1008.7 |
| 20260506211332 | 58 | 164 | 0.0 | 0.0 | 0.00 | 0.31 | 0.31 | 99 | 1008.7 |
| 20260506210830 | 58 | 295 | 0.0 | 0.0 | 0.00 | 0.31 | 0.31 | 99 | 1008.8 |
| 20260506210327 | 58 | 80 | 0.0 | 0.0 | 0.00 | 0.31 | 0.31 | 99 | 1008.8 |
| 20260506205824 | 58 | 259 | 0.0 | 0.0 | 0.00 | 0.31 | 0.31 | 99 | 1008.7 |
| 20260506205320 | 58 | 30 | 3.0 | 4.0 | 0.00 | 0.31 | 0.31 | 99 | 1008.7 |
| 20260506204817 | 58 | 253 | 0.0 | 0.0 | 0.07 | 0.31 | 0.31 | 99 | 1008.7 |
| 20260506204314 | 58 | 259 | 0.0 | 0.0 | 0.07 | 0.31 | 0.31 | 99 | 1008.6 |
| 20260506203812 | 58 | 230 | 0.0 | 0.0 | 0.05 | 0.30 | 0.30 | 99 | 1008.7 |
| 20260506203309 | 58 | 30 | 0.0 | 2.0 | 0.05 | 0.30 | 0.30 | 99 | 1008.8 |
| 20260506202806 | 58 | 244 | 0.0 | 0.0 | 0.00 | 0.29 | 0.29 | 99 | 1008.7 |
| 20260506202306 | 58 | 251 | 0.0 | 0.0 | 0.00 | 0.29 | 0.29 | 99 | 1009.0 |
| 20260506201759 | 58 | 239 | 4.0 | 4.0 | 0.07 | 0.29 | 0.29 | 99 | 1008.9 |
| 20260506201256 | 58 | 195 | 0.0 | 0.0 | 0.07 | 0.29 | 0.29 | 99 | 1008.9 |
| 20260506200754 | 58 | 228 | 0.0 | 0.0 | 0.05 | 0.28 | 0.28 | 99 | 1009.0 |
| 20260506200249 | 58 | 224 | 0.0 | 0.0 | 0.12 | 0.28 | 0.28 | 99 | 1009.0 |
| 20260506195746 | 58 | 271 | 0.0 | 1.0 | 0.12 | 0.27 | 0.27 | 99 | 1009.2 |
| 20260506195242 | 58 | 290 | 1.0 | 2.0 | 0.12 | 0.26 | 0.26 | 99 | 1009.2 |
| 20260506194740 | 58 | 336 | 2.0 | 2.0 | 0.07 | 0.25 | 0.25 | 99 | 1009.4 |
| 20260506194236 | 58 | 258 | 0.0 | 0.0 | 0.14 | 0.25 | 0.25 | 99 | 1009.3 |
| 20260506193734 | 58 | 228 | 0.0 | 0.0 | 0.12 | 0.24 | 0.24 | 99 | 1009.3 |
| 20260506193231 | 58 | 208 | 0.0 | 0.0 | 0.17 | 0.23 | 0.23 | 99 | 1009.5 |
| 20260506192727 | 58 | 315 | 1.0 | 3.0 | 0.19 | 0.22 | 0.22 | 99 | 1009.5 |
| 20260506192224 | 58 | 327 | 0.0 | 0.0 | 0.19 | 0.20 | 0.20 | 99 | 1009.5 |
| 20260506191721 | 58 | 160 | 1.0 | 1.0 | 0.24 | 0.19 | 0.19 | 99 | 1009.6 |
| 20260506191217 | 58 | 268 | 0.0 | 1.0 | 0.24 | 0.17 | 0.17 | 99 | 1009.8 |
| 20260506190714 | 58 | 201 | 0.0 | 0.0 | 0.12 | 0.15 | 0.15 | 99 | 1009.4 |
| 20260506190211 | 58 | 245 | 0.0 | 0.0 | 0.07 | 0.13 | 0.13 | 99 | 1009.5 |
| 20260506185708 | 58 | 325 | 1.0 | 1.0 | 0.07 | 0.13 | 0.13 | 99 | 1009.5 |
| 20260506185204 | 58 | 211 | 0.0 | 0.0 | 0.05 | 0.12 | 0.12 | 99 | 1009.5 |
| 20260506184702 | 58 | 194 | 1.0 | 1.0 | 0.05 | 0.12 | 0.12 | 99 | 1009.6 |
| 20260506184159 | 58 | 237 | 0.0 | 0.0 | 0.05 | 0.12 | 0.12 | 99 | 1009.7 |
| 20260506183655 | 59 | 228 | 0.0 | 0.0 | 0.07 | 0.11 | 0.11 | 99 | 1009.5 |
| 20260506183145 | 59 | 248 | 0.0 | 0.0 | 0.05 | 0.10 | 0.10 | 99 | 1009.7 |
| 20260506182643 | 59 | 231 | 0.0 | 0.0 | 0.05 | 0.10 | 0.10 | 99 | 1009.8 |
| 20260506182140 | 59 | 194 | 0.0 | 0.0 | 0.05 | 0.10 | 0.10 | 99 | 1009.8 |
| 20260506181638 | 59 | 251 | 0.0 | 0.0 | 0.00 | 0.09 | 0.09 | 99 | 1009.9 |
| 20260506181135 | 59 | 221 | 0.0 | 0.0 | 0.00 | 0.09 | 0.09 | 99 | 1009.7 |
| 20260506180632 | 59 | 85 | 0.0 | 0.0 | 0.00 | 0.09 | 0.09 | 99 | 1009.7 |
| 20260506180128 | 59 | 331 | 2.0 | 2.0 | 0.00 | 0.09 | 0.09 | 98 | 1010.1 |
| 20260506175624 | 59 | 79 | 0.0 | 0.0 | 0.00 | 0.09 | 0.09 | 99 | 1009.8 |
| 20260506175120 | 58 | 335 | 1.0 | 1.0 | 0.07 | 0.09 | 0.09 | 99 | 1010.0 |
| 20260506174619 | 58 | 190 | 1.0 | 2.0 | 0.07 | 0.09 | 0.09 | 98 | 1010.2 |
| 20260506174116 | 59 | 36 | 0.0 | 0.0 | 0.00 | 0.08 | 0.08 | 98 | 1010.2 |
| 20260506173614 | 59 | 248 | 0.0 | 0.0 | 0.00 | 0.08 | 0.08 | 98 | 1009.9 |
| 20260506173110 | 59 | 146 | 0.0 | 0.0 | 0.05 | 0.08 | 0.08 | 98 | 1009.7 |
| 20260506172608 | 59 | 212 | 0.0 | 1.0 | 0.05 | 0.08 | 0.08 | 98 | 1009.7 |
| 20260506172103 | 59 | 174 | 0.0 | 0.0 | 0.00 | 0.07 | 0.07 | 98 | 1009.9 |
| 20260506171601 | 60 | 234 | 0.0 | 1.0 | 0.07 | 0.07 | 0.07 | 97 | 1009.9 |
| 20260506171058 | 60 | 161 | 1.0 | 1.0 | 0.07 | 0.07 | 0.07 | 97 | 1009.7 |
| 20260506170556 | 60 | 269 | 0.0 | 0.0 | 0.05 | 0.06 | 0.06 | 97 | 1010.0 |
| 20260506170053 | 60 | 219 | 0.0 | 0.0 | 0.12 | 0.06 | 0.06 | 97 | 1010.1 |
| 20260506165552 | 60 | 197 | 0.0 | 0.0 | 0.07 | 0.05 | 0.05 | 96 | 1010.2 |
| 20260506165047 | 60 | 202 | 0.0 | 0.0 | 0.05 | 0.04 | 0.04 | 95 | 1010.3 |
| 20260506164545 | 60 | 245 | 0.0 | 0.0 | 0.12 | 0.04 | 0.04 | 94 | 1010.7 |
| 20260506164042 | 60 | 239 | 0.0 | 0.0 | 0.12 | 0.03 | 0.03 | 93 | 1010.9 |
| 20260506163537 | 60 | 291 | 0.0 | 0.0 | 0.12 | 0.02 | 0.02 | 92 | 1011.4 |
| 20260506163033 | 61 | 218 | 0.0 | 0.0 | 0.07 | 0.01 | 0.01 | 90 | 1011.2 |
| 20260506162529 | 61 | 240 | 0.0 | 0.0 | 0.00 | 0.00 | 0.00 | 90 | 1011.4 |
| 20260506162021 | 62 | 107 | 0.0 | 1.0 | 0.00 | 0.00 | 0.00 | 88 | 1011.4 |
| 20260506161519 | 62 | 278 | 0.0 | 0.0 | 0.00 | 0.00 | 0.00 | 87 | 1011.1 |
| 20260506161016 | 63 | 72 | 4.0 | 6.0 | 0.00 | 0.00 | 0.00 | 84 | 1011.2 |
| 20260506160513 | 63 | 262 | 0.0 | 0.0 | 0.00 | 0.00 | 0.00 | 84 | 1010.9 |
| 20260506160010 | 63 | 291 | 0.0 | 0.0 | 0.00 | 0.00 | 0.00 | 85 | 1011.2 |
| 20260506155508 | 63 | 151 | 0.0 | 0.0 | 0.00 | 0.00 | 0.00 | 86 | 1011.2 |
| 20260506153640 | 63 | 255 | 1.0 | 2.0 | 0.00 | 0.00 | 0.00 | 84 | 1011.5 |
| 20260506153137 | 64 | 252 | 1.0 | 1.0 | 0.00 | 0.00 | 0.00 | 82 | 1011.5 |
| 20260506152634 | 64 | 232 | 0.0 | 0.0 | 0.00 | 0.00 | 0.00 | 82 | 1011.7 |
| 20260506152132 | 64 | 263 | 1.0 | 2.0 | 0.00 | 0.00 | 0.00 | 81 | 1011.6 |
| 20260506151630 | 64 | 161 | 0.0 | 0.0 | 0.00 | 0.00 | 0.00 | 81 | 1011.6 |
| 20260506151127 | 64 | 238 | 0.0 | 0.0 | 0.00 | 0.00 | 0.00 | 80 | 1011.6 |
| 20260506150624 | 64 | 277 | 2.0 | 2.0 | 0.00 | 0.00 | 0.00 | 80 | 1011.6 |
| 20260506150121 | 64 | 113 | 1.0 | 3.0 | 0.00 | 0.00 | 0.00 | 80 | 1011.6 |
| 20260506145618 | 64 | 251 | 0.0 | 0.0 | 0.00 | 0.00 | 0.00 | 81 | 1011.6 |
| 20260506145114 | 64 | 222 | 0.0 | 0.0 | 0.00 | 0.00 | 0.00 | 81 | 1011.5 |
| 20260506144612 | 64 | 249 | 1.0 | 1.0 | 0.00 | 0.00 | 0.00 | 80 | 1011.8 |
| 20260506144108 | 64 | 334 | 0.0 | 2.0 | 0.00 | 0.00 | 0.00 | 81 | 1011.5 |
| 20260506143606 | 63 | 261 | 2.0 | 3.0 | 0.00 | 0.00 | 0.00 | 81 | 1011.7 |
| 20260506143104 | 63 | 274 | 1.0 | 1.0 | 0.00 | 0.00 | 0.00 | 82 | 1011.7 |
| 20260506142602 | 63 | 233 | 0.0 | 0.0 | 0.00 | 0.00 | 0.00 | 83 | 1011.6 |
| 20260506142100 | 63 | 246 | 1.0 | 1.0 | 0.00 | 0.00 | 0.00 | 82 | 1011.7 |
| 20260506141557 | 63 | 10 | 3.0 | 4.0 | 0.00 | 0.00 | 0.00 | 82 | 1012.1 |
| 20260506141055 | 63 | 1 | 1.0 | 2.0 | 0.00 | 0.00 | 0.00 | 83 | 1011.8 |
| 20260506140552 | 63 | 219 | 0.0 | 0.0 | 0.00 | 0.00 | 0.00 | 84 | 1012.1 |
| 20260506140050 | 63 | 204 | 0.0 | 0.0 | 0.00 | 0.00 | 0.00 | 84 | 1012.0 |
| 20260506135546 | 62 | 306 | 0.0 | 0.0 | 0.00 | 0.00 | 0.00 | 84 | 1011.6 |
| 20260506135043 | 62 | 337 | 0.0 | 0.0 | 0.00 | 0.00 | 0.00 | 85 | 1011.7 |
| 20260506134539 | 62 | 245 | 1.0 | 1.0 | 0.00 | 0.00 | 0.00 | 85 | 1011.4 |
| 20260506134035 | 62 | 331 | 1.0 | 2.0 | 0.00 | 0.00 | 0.00 | 84 | 1011.4 |
| 20260506133533 | 62 | 225 | 0.0 | 0.0 | 0.00 | 0.00 | 0.00 | 85 | 1011.7 |
| 20260506133029 | 61 | 152 | 1.0 | 1.0 | 0.00 | 0.00 | 0.00 | 86 | 1011.7 |
| 20260506132527 | 61 | 239 | 0.0 | 0.0 | 0.00 | 0.00 | 0.00 | 87 | 1011.5 |
| 20260506132024 | 61 | 214 | 0.0 | 0.0 | 0.00 | 0.00 | 0.00 | 87 | 1011.7 |
| 20260506131521 | 61 | 200 | 0.0 | 0.0 | 0.00 | 0.00 | 0.00 | 88 | 1011.4 |
| 20260506131017 | 60 | 128 | 0.0 | 0.0 | 0.00 | 0.00 | 0.00 | 88 | 1011.1 |
| 20260506130514 | 60 | 269 | 0.0 | 0.0 | 0.00 | 0.00 | 0.00 | 89 | 1011.5 |
| 20260506130012 | 60 | 205 | 1.0 | 1.0 | 0.00 | 0.00 | 0.00 | 89 | 1011.5 |
| 20260506125510 | 59 | 247 | 0.0 | 1.0 | 0.00 | 0.00 | 0.00 | 90 | 1011.6 |
| 20260506125007 | 59 | 205 | 0.0 | 0.0 | 0.00 | 0.00 | 0.00 | 90 | 1011.7 |
| 20260506124505 | 59 | 221 | 1.0 | 1.0 | 0.00 | 0.00 | 0.00 | 90 | 1011.5 |
| 20260506124003 | 58 | 216 | 0.0 | 0.0 | 0.00 | 0.00 | 0.00 | 91 | 1011.8 |
| 20260506123500 | 58 | 212 | 0.0 | 0.0 | 0.00 | 0.00 | 0.00 | 91 | 1011.8 |
| 20260506122958 | 58 | 237 | 0.0 | 0.0 | 0.00 | 0.00 | 0.00 | 92 | 1011.4 |
| 20260506122455 | 58 | 44 | 1.0 | 1.0 | 0.00 | 0.00 | 0.00 | 92 | 1011.7 |
| 20260506121953 | 57 | 52 | 0.0 | 0.0 | 0.00 | 0.00 | 0.00 | 92 | 1011.7 |
| 20260506121450 | 57 | 122 | 0.0 | 0.0 | 0.00 | 0.00 | 0.00 | 92 | 1011.9 |
| 20260506120946 | 57 | 220 | 0.0 | 0.0 | 0.00 | 0.00 | 0.00 | 92 | 1012.0 |
| 20260506120444 | 57 | 239 | 1.0 | 1.0 | 0.00 | 0.00 | 0.00 | 92 | 1012.0 |
| 20260506115941 | 58 | 222 | 0.0 | 1.0 | 0.00 | 0.00 | 0.00 | 92 | 1012.2 |
| 20260506115439 | 57 | 204 | 0.0 | 0.0 | 0.00 | 0.00 | 0.00 | 92 | 1012.1 |
| 20260506114937 | 57 | 241 | 0.0 | 0.0 | 0.00 | 0.00 | 0.00 | 93 | 1012.1 |
| 20260506114434 | 57 | 348 | 0.0 | 1.0 | 0.00 | 0.00 | 0.00 | 93 | 1011.9 |
| 20260506113933 | 56 | 210 | 0.0 | 0.0 | 0.00 | 0.00 | 0.00 | 93 | 1011.8 |
| 20260506113430 | 56 | 221 | 0.0 | 0.0 | 0.00 | 0.00 | 0.00 | 94 | 1011.8 |
| 20260506112926 | 56 | 74 | 1.0 | 2.0 | 0.00 | 0.00 | 0.00 | 94 | 1011.9 |
| 20260506112424 | 56 | 244 | 0.0 | 0.0 | 0.00 | 0.00 | 0.00 | 95 | 1011.9 |
| 20260506111921 | 56 | 238 | 0.0 | 0.0 | 0.00 | 0.00 | 0.00 | 95 | 1012.0 |
| 20260506111419 | 55 | 358 | 1.0 | 2.0 | 0.00 | 0.00 | 0.00 | 95 | 1011.9 |
| 20260506110916 | 55 | 213 | 0.0 | 0.0 | 0.00 | 0.00 | 0.00 | 95 | 1012.0 |
| 20260506110414 | 55 | 89 | 1.0 | 1.0 | 0.00 | 0.00 | 0.00 | 95 | 1012.1 |
| 20260506105910 | 55 | 240 | 0.0 | 0.0 | 0.00 | 0.00 | 0.00 | 95 | 1012.4 |
| 20260506105407 | 55 | 207 | 0.0 | 0.0 | 0.00 | 0.00 | 0.00 | 95 | 1012.1 |
| 20260506104904 | 55 | 203 | 0.0 | 0.0 | 0.00 | 0.00 | 0.00 | 95 | 1012.1 |
| 20260506104402 | 55 | 110 | 2.0 | 2.0 | 0.00 | 0.00 | 0.00 | 95 | 1011.8 |
| 20260506103900 | 55 | 30 | 2.0 | 2.0 | 0.00 | 0.00 | 0.00 | 96 | 1012.1 |
| 20260506103357 | 55 | 217 | 1.0 | 2.0 | 0.00 | 0.00 | 0.00 | 96 | 1011.8 |
| 20260506102854 | 55 | 121 | 1.0 | 2.0 | 0.00 | 0.00 | 0.00 | 96 | 1011.9 |
| 20260506102352 | 54 | 207 | 0.0 | 0.0 | 0.00 | 0.00 | 0.00 | 96 | 1011.8 |
| 20260506101849 | 54 | 161 | 0.0 | 0.0 | 0.00 | 0.00 | 0.00 | 96 | 1011.7 |
| 20260506101345 | 54 | 145 | 1.0 | 1.0 | 0.00 | 0.00 | 0.00 | 96 | 1011.8 |
| 20260506100843 | 54 | 121 | 0.0 | 1.0 | 0.00 | 0.00 | 0.00 | 96 | 1011.7 |
| 20260506100341 | 54 | 215 | 0.0 | 0.0 | 0.00 | 0.00 | 0.00 | 97 | 1012.0 |
| 20260506095839 | 54 | 271 | 0.0 | 0.0 | 0.00 | 0.00 | 0.00 | 97 | 1012.0 |
| 20260506095336 | 53 | 156 | 0.0 | 0.0 | 0.00 | 0.00 | 0.00 | 97 | 1012.0 |
| 20260506094833 | 53 | 179 | 2.0 | 2.0 | 0.00 | 0.00 | 0.00 | 97 | 1011.7 |
| 20260506094332 | 53 | 243 | 0.0 | 0.0 | 0.00 | 0.00 | 0.00 | 97 | 1011.7 |
| 20260506093829 | 53 | 179 | 0.0 | 0.0 | 0.00 | 0.00 | 0.00 | 97 | 1011.7 |
| 20260506093326 | 53 | 169 | 0.0 | 1.0 | 0.00 | 0.00 | 0.00 | 97 | 1011.8 |
| 20260506092824 | 53 | 197 | 1.0 | 1.0 | 0.00 | 0.00 | 0.00 | 96 | 1011.7 |
| 20260506092321 | 53 | 188 | 0.0 | 0.0 | 0.00 | 0.00 | 0.00 | 96 | 1011.9 |
| 20260506091818 | 53 | 65 | 1.0 | 2.0 | 0.00 | 0.00 | 0.00 | 96 | 1011.9 |
| 20260506091316 | 53 | 229 | 0.0 | 0.0 | 0.00 | 0.00 | 0.00 | 95 | 1011.8 |
| 20260506090813 | 54 | 130 | 0.0 | 1.0 | 0.00 | 0.00 | 0.00 | 95 | 1011.9 |
| 20260506090310 | 54 | 95 | 1.0 | 1.0 | 0.00 | 0.00 | 0.00 | 95 | 1011.8 |
| 20260506085807 | 54 | 105 | 1.0 | 2.0 | 0.00 | 0.00 | 0.00 | 95 | 1011.9 |
| 20260506085305 | 54 | 150 | 0.0 | 0.0 | 0.00 | 0.00 | 0.00 | 95 | 1011.9 |
| 20260506084800 | 54 | 188 | 0.0 | 0.0 | 0.00 | 0.00 | 0.00 | 94 | 1012.0 |
| 20260506084256 | 54 | 160 | 0.0 | 0.0 | 0.00 | 0.00 | 0.00 | 94 | 1012.0 |
| 20260506083753 | 54 | 224 | 0.0 | 0.0 | 0.00 | 0.00 | 0.00 | 94 | 1012.1 |
| 20260506083251 | 54 | 173 | 0.0 | 1.0 | 0.00 | 0.00 | 0.00 | 93 | 1012.1 |
| 20260506082748 | 54 | 201 | 1.0 | 2.0 | 0.00 | 0.00 | 0.00 | 93 | 1012.2 |
| 20260506082243 | 55 | 122 | 0.0 | 0.0 | 0.00 | 0.00 | 0.00 | 92 | 1012.0 |
| 20260506081741 | 55 | 232 | 2.0 | 3.0 | 0.00 | 0.00 | 0.00 | 92 | 1012.1 |
| 20260506081239 | 55 | 46 | 0.0 | 1.0 | 0.00 | 0.00 | 0.00 | 92 | 1011.9 |
| 20260506080737 | 55 | 203 | 0.0 | 0.0 | 0.00 | 0.00 | 0.00 | 91 | 1012.0 |
| 20260506080233 | 55 | 140 | 0.0 | 1.0 | 0.00 | 0.00 | 0.00 | 91 | 1012.0 |
| 20260506073217 | 56 | 140 | 0.0 | 0.0 | 0.00 | 0.00 | 0.00 | 88 | 1011.8 |
| 20260506072714 | 56 | 182 | 2.0 | 3.0 | 0.00 | 0.00 | 0.00 | 88 | 1011.8 |
| 20260506072211 | 56 | 133 | 2.0 | 3.0 | 0.00 | 0.00 | 0.00 | 87 | 1012.1 |
| 20260506071709 | 57 | 210 | 1.0 | 2.0 | 0.00 | 0.00 | 0.00 | 86 | 1012.2 |
| 20260506071207 | 57 | 71 | 3.0 | 3.0 | 0.00 | 0.00 | 0.00 | 86 | 1012.1 |
| 20260506070703 | 57 | 33 | 0.0 | 1.0 | 0.00 | 0.00 | 0.00 | 85 | 1012.0 |
| 20260506070200 | 57 | 156 | 1.0 | 1.0 | 0.00 | 0.00 | 0.00 | 84 | 1012.4 |
| 20260506062137 | 60 | 231 | 0.0 | 0.0 | 0.00 | 0.00 | 0.00 | 79 | 1012.3 |
| 20260506061633 | 59 | 238 | 0.0 | 0.0 | 0.00 | 0.00 | 0.00 | 79 | 1012.0 |
| 20260506061131 | 60 | 208 | 0.0 | 0.0 | 0.00 | 0.00 | 0.00 | 79 | 1012.0 |
| 20260506060629 | 60 | 221 | 0.0 | 0.0 | 0.00 | 0.00 | 0.00 | 79 | 1012.1 |
| 20260506060126 | 59 | 93 | 0.0 | 0.0 | 0.00 | 0.00 | 0.00 | 79 | 1012.1 |